Weather History for KOWD - July, 2013

Change the Weather History Date:

Thursday, July 11, 2013

  Actual Average Record
Temperature  
Mean Temperature 74 °F -  
Max Temperature 81 °F 80 °F 91 °F (2005)
Min Temperature 66 °F 57 °F 46 °F (2002)
Cooling Degree Days 10    
Growing Degree Days 24 (Base 50)    
Moisture  
Dew Point 73 °F    
Average Humidity 95    
Maximum Humidity 100    
Minimum Humidity 74    
Precipitation  
Precipitation 0.21 in - - ()
Sea Level Pressure  
Sea Level Pressure 29.84 in    
Wind  
Wind Speed 4 mph (SSW)    
Max Wind Speed 10 mph    
Max Gust Speed 20 mph    
Visibility 6 miles    
Events Rain    
Averages and records for this station are not official NWS values.
T = Trace of Precipitation, MM = Missing Value Source: NWS Daily Summary

Daily Weather History Graph

Daily Weather History Graph

Search for Another Location

Airport or City:

Trip Planner

Search our weather history database for the weather conditions in past years. The results will help you decide how hot, cold, wet, or windy it might be!

Date:

Astronomy

Jul. 11, 2013 Rise Set
Actual Time 5:18 AM EDT 8:21 PM EDT
Civil Twilight 4:45 AM EDT 8:55 PM EDT
Nautical Twilight 4:01 AM EDT 9:37 PM EDT
Astronomical Twilight 3:10 AM EDT 10:28 PM EDT
Moon 8:38 AM EDT (7/11) 9:55 PM EDT (7/11)
Length of Visible Light 16h 10m
Length of Day
15h 02m
Waxing Crescent, 10% of the Moon is Illuminated
Jul 11
Waxing Crescent
Jul 15
First Quarter
Jul 22
Full
Jul 29
Last Quarter
Aug 6
New

Hourly Weather History & Observations

Time (EDT) Temp. Heat Index Dew Point Humidity Pressure Visibility Wind Dir Wind Speed Gust Speed Precip Events Conditions
12:53 AM 75.0 °F - 73.9 °F 96% 29.79 in 8.0 mi South 4.6 mph - N/A   Clear
1:53 AM 73.9 °F - 73.9 °F 100% 29.79 in 8.0 mi South 3.5 mph - N/A   Clear
2:53 AM 73.0 °F - 73.0 °F 100% 29.78 in 6.0 mi South 4.6 mph - N/A   Clear
3:53 AM 73.0 °F - 73.0 °F 100% 29.78 in 6.0 mi SSE 3.5 mph - N/A   Clear
4:53 AM 73.0 °F - 73.0 °F 100% 29.79 in 5.0 mi South 3.5 mph - N/A   Clear
5:53 AM 71.1 °F - 71.1 °F 100% 29.80 in 2.0 mi Calm Calm - N/A   Clear
6:10 AM 71.6 °F - 71.6 °F 100% 29.80 in 3.0 mi Calm Calm - N/A   Clear
6:53 AM 75.0 °F - 75.0 °F 100% 29.81 in 6.0 mi Calm Calm - N/A   Clear
7:53 AM 78.1 °F - 75.0 °F 90% 29.80 in 7.0 mi West 3.5 mph - N/A   Clear
8:53 AM 78.1 °F - 77.0 °F 96% 29.82 in 6.0 mi SSW 5.8 mph - 0.00 in Rain Light Rain
9:02 AM 78.8 °F - 77.0 °F 94% 29.82 in 5.0 mi SW 6.9 mph - 0.00 in Rain Light Rain
9:53 AM 75.9 °F - 75.9 °F 100% 29.83 in 3.0 mi West 9.2 mph - 0.03 in Rain Light Rain
10:00 AM 75.2 °F - 75.2 °F 100% 29.84 in 4.0 mi WSW 10.4 mph 19.6 mph 0.01 in Rain Light Rain
10:53 AM 73.0 °F - 73.0 °F 100% 29.84 in 4.0 mi SW 3.5 mph - 0.15 in Rain Light Rain
11:53 AM 75.0 °F - 70.0 °F 84% 29.85 in 10.0 mi Calm Calm - 0.02 in   Scattered Clouds
12:53 PM 77.0 °F - 73.0 °F 88% 29.84 in 10.0 mi Variable 3.5 mph - 0.01 in   Scattered Clouds
1:53 PM 79.0 °F - 73.9 °F 84% 29.83 in 10.0 mi South 5.8 mph - N/A   Clear
2:53 PM 81.0 °F 85.2 °F 72.0 °F 74% 29.83 in 10.0 mi SW 8.1 mph - N/A   Clear
3:53 PM 81.0 °F 85.8 °F 73.0 °F 77% 29.83 in 10.0 mi South 4.6 mph - N/A   Partly Cloudy
4:53 PM 80.1 °F 85.1 °F 75.0 °F 85% 29.83 in 10.0 mi SW 4.6 mph - N/A   Clear
5:53 PM 79.0 °F - 75.9 °F 90% 29.83 in 10.0 mi SSW 3.5 mph - N/A   Clear
6:53 PM 79.0 °F - 75.9 °F 90% 29.85 in 10.0 mi Calm Calm - N/A   Partly Cloudy
7:53 PM 77.0 °F - 75.9 °F 96% 29.86 in 10.0 mi Calm Calm - N/A   Partly Cloudy
8:48 PM 75.2 °F - 75.2 °F 100% 29.87 in 3.0 mi Variable 4.6 mph - N/A   Mostly Cloudy
8:53 PM 77.0 °F - 75.9 °F 96% 29.88 in 7.0 mi NW 6.9 mph - N/A   Mostly Cloudy
9:05 PM 73.4 °F - 71.6 °F 94% 29.89 in 8.0 mi Variable 6.9 mph - 0.00 in Rain Light Rain
9:53 PM 72.0 °F - 72.0 °F 100% 29.90 in 10.0 mi Calm Calm - 0.00 in   Scattered Clouds
10:53 PM 69.1 °F - 69.1 °F 100% 29.90 in 3.0 mi Calm Calm - N/A   Clear
11:16 PM 69.8 °F - 69.8 °F 100% 29.90 in 1.2 mi Calm Calm - N/A   Scattered Clouds
11:18 PM 68.0 °F - 68.0 °F 100% 29.90 in 0.8 mi Calm Calm - N/A   Scattered Clouds
11:43 PM 68.0 °F - 68.0 °F 100% 29.91 in 0.8 mi Calm Calm - N/A   Mist
11:46 PM 68.0 °F - 68.0 °F 100% 29.91 in 1.5 mi Calm Calm - N/A   Partly Cloudy
11:48 PM 68.0 °F - 68.0 °F 100% 29.91 in 3.0 mi Calm Calm - N/A   Partly Cloudy
11:53 PM 66.9 °F - 66.9 °F 100% 29.91 in 5.0 mi ESE 3.5 mph - N/A   Partly Cloudy